RH
34 33 31 29 36 33 27 56 70 73 75 77 81 85 88 91 84 77 62 71 84 88 83 84 75 67 80 92 98 94 98 97 89 85 80 78 78 65 62 52 61 73 78 77 68 67 60 43 70 76 91 93 91 88
33 26 33 39 33 24 49 67 74 77 81 82 82 87 91 97 98 94 84 69 87 92 83 80 73 71 82 84 91 90 91 93 99 89 81 81 77 72 61 71 93 97 91 89 81 74 74 67 68 78 84 92 93 93
32 34 35 29 24 42 65 79 83 85 89 92 95 95 95 97 99 98 93 83 88 92 85 78 72 72 74 76 81 87 89 95 98 98 91 87 78 78 79 88 91 97 96 98 93 90 80 79 85 75 83 88 87 88
30 33 30 28 42 62 78 82 85 90 93 97 98 99 98 98 98 99 95 85 87 93 84 69 70 66 66 67 66 69 80 90 93 94 94 85 86 91 95 96 98 97 94 96 98 92 92 89 84 92 91 91 88 81
41 36 30 40 57 75 85 90 89 90 92 94 98 98 98 98 99 98 95 75 84 85 86 83 65 60 62 62 63 67 75 81 88 89 89 91 95 98 98 97 98 99 97 95 96 96 98 98 93 93 97 93 86 80
34 30 36 56 76 85 88 88 89 87 86 90 97 99 98 93 93 95 80 63 71 79 86 76 58 56 62 57 61 64 68 75 80 85 91 92 95 98 99 99 98 98 98 99 98 99 97 97 96 93 89 92 91 82
32 44 61 79 84 87 89 88 88 90 89 91 97 88 81 81 80 67 52 56 64 79 88 80 66 56 54 50 54 59 65 70 75 82 87 87 89 92 99 96 97 97 98 97 97 98 97 97 91 90 91 87 84 83
56 73 84 87 88 90 90 90 92 93 89 95 82 63 69 74 63 59 67 66 65 79 81 79 79 75 68 56 50 51 65 75 80 85 87 91 92 97 96 97 98 96 97 93 92 92 88 85 83 83 82 82 80 79
93 95 92 86 86 91 95 95 91 90 86 88 65 63 61 56 57 68 83 83 75 81 91 93 94 95 98 98 94 92 88 89 89 92 93 94 97 98 97 97 97 96 92 89 89 90 90 87 84 82 81 78 75 74
95 93 95 96 95 95 92 90 88 87 88 74 56 56 60 60 66 85 88 87 95 95 96 94 88 91 94 99 99 96 99 99 96 92 93 96 93 93 93 92 92 92 94 91 90 89 90 89 87 84 82 79 77 74
98 97 96 95 95 94 90 89 88 89 76 55 56 63 65 71 83 80 84 91 97 94 89 83 83 88 91 99 98 97 93 95 94 90 98 95 89 89 90 89 87 86 88 91 90 88 88 88 87 85 84 83 80 80
90 91 95 92 97 93 88 87 89 70 60 60 79 74 80 85 86 90 90 89 85 81 89 88 81 78 85 92 95 94 94 95 96 99 97 92 88 90 90 90 90 89 90 89 89 88 85 83 84 85 84 81 80 79
92 95 92 92 98 91 90 93 84 79 75 92 90 88 83 85 89 82 72 76 83 82 86 89 91 90 92 93 94 96 98 95 94 96 93 90 89 86 84 86 90 91 91 93 90 88 86 86 87 87 87 86 84 83
94 95 91 93 95 92 95 92 89 91 96 95 91 90 95 89 86 83 74 75 79 88 89 93 96 94 89 87 89 89 93 94 94 91 87 86 83 85 85 82 80 79 79 83 87 87 84 83 82 85 89 90 88 85
96 96 96 96 95 99 98 97 94 94 91 88 83 86 85 85 89 93 91 86 88 91 90 90 90 86 83 82 81 84 92 92 86 87 90 91 89 86 87 86 89 87 87 88 89 90 91 91 90 92 94 93 93 92
99 97 99 99 99 98 98 98 95 92 87 84 87 85 87 85 86 86 86 85 84 82 81 79 81 78 72 71 72 75 79 80 81 82 88 88 88 89 90 90 91 93 94 94 95 95 95 95 95 94 94 93 88 80
96 90 98 98 97 96 96 95 94 94 87 87 89 87 83 79 79 77 75 76 74 73 74 72 71 69 71 71 75 80 84 82 84 86 91 89 89 91 91 92 94 95 96 97 98 98 98 97 94 89 83 80 75 67
92 95 98 98 98 97 95 90 87 85 88 85 80 82 79 76 75 72 71 72 73 71 71 74 74 80 88 87 90 92 88 86 86 87 88 88 88 91 92 94 96 97 98 98 98 98 98 94 89 83 72 58 48 42
89 89 92 91 90 88 89 89 84 84 84 82 81 78 73 72 70 71 74 73 71 71 73 73 81 88 90 89 87 88 89 87 88 89 91 92 94 96 97 97 98 98 98 98 96 92 83 67 50 41 38 38 38 40
97 96 96 90 82 81 82 83 79 78 79 80 76 75 77 79 80 81 81 78 75 76 80 83 86 88 88 86 85 86 87 90 92 94 96 96 96 97 97 96 93 84 75 69 63 54 47 44 41 39 41 44 46 45
96 96 98 94 89 88 90 87 88 88 85 84 82 82 85 87 87 87 86 86 89 92 92 91 91 91 89 89 90 91 93 94 94 90 85 83 79 72 71 71 71 70 64 54 47 44 41 39 39 37 36 36 36 35
91 93 92 91 91 88 90 87 85 83 82 83 86 83 82 81 80 80 81 84 90 92 91 91 91 92 94 95 95 94 90 76 68 67 69 70 70 68 66 62 56 52 50 47 45 43 41 39 38 36 34 33 31 29
87 84 87 91 90 85 88 87 82 79 79 80 79 78 80 80 80 80 84 86 90 93 94 95 97 96 92 88 75 66 66 66 66 66 65 64 62 57 53 48 45 43 41 39 37 36 35 32 30 29 28 29 31 32
85 85 88 88 87 92 87 85 76 77 80 80 79 82 82 79 79 81 89 95 96 96 92 87 82 75 69 66 66 66 64 63 61 59 56 52 49 46 43 40 39 39 38 35 31 29 27 27 27 28 30 31 33 35
83 85 87 92 91 90 84 80 79 79 81 79 80 82 85 86 89 89 85 78 73 70 70 69 67 66 64 64 64 62 57 52 50 49 47 44 42 42 42 41 38 33 28 26 28 29 29 29 30 31 33 33 34 35
80 79 77 80 91 88 80 79 76 78 81 83 85 86 87 78 68 65 64 64 65 65 65 65 65 63 62 61 57 53 52 50 47 45 42 43 42 41 37 33 29 28 28 24 24 28 29 30 31 32 33 34 35 37
75 67 64 60 61 72 79 77 74 75 78 76 73 71 63 60 62 62 62 60 62 64 64 64 62 62 57 53 53 51 50 49 47 38 33 32 30 28 27 28 30 29 26 23 21 23 26 29 32 32 34 35 36 37
74 69 65 57 51 51 53 56 57 59 61 62 59 53 52 52 57 58 58 60 60 63 65 66 63 59 58 57 52 49 49 44 35 33 31 28 26 25 24 23 24 24 24 25 25 26 27 28 28 30 32 36 38 40
69 70 65 60 50 45 46 44 43 48 51 48 45 45 46 48 52 55 58 60 61 60 61 61 59 60 59 54 49 45 38 36 33 27 26 28 28 28 26 25 25 25 25 26 27 29 31 32 34 35 37 39 41 42
67 66 68 70 58 47 42 40 39 42 47 43 38 39 41 45 51 55 56 57 58 58 58 58 59 61 58 52 43 35 32 31 28 26 28 28 30 28 26 27 27 28 28 29 29 30 32 35 36 36 35 34 32 30
63 64 68 71 70 54 42 42 43 44 42 39 35 36 40 46 50 55 56 56 56 56 55 58 63 62 53 43 36 34 28 23 22 23 24 25 26 27 28 29 29 29 30 31 33 34 33 32 31 30 31 33 37 43
59 62 67 72 67 57 46 39 41 42 40 39 41 43 45 46 51 53 54 55 56 57 62 67 62 53 45 39 33 28 24 24 24 25 26 26 28 28 29 30 31 33 34 32 31 31 33 34 35 38 44 51 53 55
64 65 64 60 61 56 48 44 44 47 48 48 49 49 51 51 51 52 53 56 61 66 68 63 55 44 37 33 28 25 25 25 26 26 27 27 28 29 31 33 33 31 32 34 37 36 37 41 47 52 55 56 58 59